| time (UTC) | temp C | wind direction | speed KPH | gust KPH | rain 1hr cm | rain 24hr cm | rain mn cm | humidity % | barometer mb |
| 20260507070015 | 4 | 0.0 | 0.0 | 0.00 | 0.97 | 0.00 | 94 | 1011.1 | |
| 20260507063015 | 5 | 0.0 | 1.6 | 0.00 | 1.07 | 0.00 | 94 | 1010.8 | |
| 20260507060015 | 5 | 0.0 | 4.8 | 0.00 | 1.22 | 0.00 | 95 | 1011.1 | |
| 20260507053019 | 5 | 0.0 | 4.8 | 0.00 | 1.27 | 0.00 | 95 | 1011.5 | |
| 20260507050017 | 5 | 315 | 1.6 | 9.7 | 0.00 | 1.40 | 0.00 | 95 | 1011.5 |
| 20260507043017 | 5 | 315 | 1.6 | 8.0 | 0.00 | 1.45 | 0.00 | 95 | 1011.4 |
| 20260507040037 | 6 | 315 | 1.6 | 9.7 | 0.00 | 1.50 | 0.00 | 96 | 1011.2 |
| 20260507033016 | 6 | 315 | 1.6 | 6.4 | 0.00 | 1.55 | 1.55 | 96 | 1011.0 |
| 20260507030036 | 6 | 315 | 1.6 | 9.7 | 0.00 | 1.57 | 1.55 | 95 | 1010.7 |
| 20260507023016 | 6 | 315 | 1.6 | 6.4 | 0.00 | 1.57 | 1.55 | 95 | 1010.8 |
| 20260507020017 | 6 | 337 | 1.6 | 6.4 | 0.03 | 1.63 | 1.55 | 94 | 1011.0 |
| 20260507013016 | 6 | 337 | 3.2 | 9.7 | 0.08 | 1.68 | 1.55 | 94 | 1011.1 |
| 20260507010016 | 7 | 337 | 1.6 | 8.0 | 0.10 | 1.65 | 1.52 | 93 | 1010.6 |
| 20260507003016 | 7 | 315 | 1.6 | 14.5 | 0.10 | 1.63 | 1.47 | 91 | 1010.2 |
| 20260507000016 | 8 | 0.0 | 0.0 | 0.08 | 1.60 | 1.42 | 91 | 1009.5 | |
| 20260506233016 | 8 | 0.0 | 0.0 | 0.03 | 1.57 | 1.37 | 89 | 1009.2 | |
| 20260506230016 | 8 | 0.0 | 0.0 | 0.00 | 1.60 | 1.35 | 88 | 1009.0 | |
| 20260506223017 | 8 | 0.0 | 0.0 | 0.00 | 1.63 | 1.35 | 87 | 1008.7 | |
| 20260506220015 | 8 | 0.0 | 0.0 | 0.00 | 1.63 | 1.35 | 86 | 1008.5 | |
| 20260506213016 | 9 | 0.0 | 0.0 | 0.00 | 1.63 | 1.35 | 84 | 1008.7 | |
| 20260506210015 | 8 | 0.0 | 3.2 | 0.00 | 1.63 | 1.35 | 86 | 1008.6 | |
| 20260506203016 | 8 | 22 | 1.6 | 4.8 | 0.00 | 1.63 | 1.35 | 86 | 1008.4 |
| 20260506200015 | 8 | 22 | 1.6 | 8.0 | 0.00 | 1.63 | 1.35 | 87 | 1008.7 |
| 20260506193015 | 8 | 22 | 1.6 | 8.0 | 0.00 | 1.63 | 1.35 | 89 | 1008.4 |
| 20260506190037 | 7 | 22 | 4.8 | 12.9 | 0.00 | 1.63 | 1.35 | 91 | 1008.6 |
| 20260506183015 | 7 | 22 | 3.2 | 11.3 | 0.00 | 1.63 | 1.35 | 93 | 1008.6 |
| 20260506180015 | 7 | 22 | 3.2 | 11.3 | 0.00 | 1.63 | 1.35 | 93 | 1008.7 |
| 20260506173037 | 7 | 22 | 3.2 | 9.7 | 0.00 | 1.63 | 1.35 | 94 | 1008.1 |
| 20260506170017 | 7 | 22 | 4.8 | 14.5 | 0.00 | 1.63 | 1.35 | 95 | 1007.8 |
| 20260506163017 | 7 | 45 | 8.0 | 14.5 | 0.00 | 1.63 | 1.35 | 95 | 1007.5 |
| 20260506160017 | 7 | 22 | 4.8 | 14.5 | 0.00 | 1.63 | 1.35 | 96 | 1007.7 |
| 20260506153018 | 6 | 22 | 6.4 | 14.5 | 0.00 | 1.63 | 1.35 | 96 | 1007.5 |
| 20260506150017 | 6 | 45 | 8.0 | 14.5 | 0.00 | 1.63 | 1.35 | 96 | 1007.5 |
| 20260506143016 | 6 | 45 | 8.0 | 14.5 | 0.03 | 1.63 | 1.35 | 97 | 1007.2 |
| 20260506140016 | 6 | 45 | 8.0 | 14.5 | 0.05 | 1.63 | 1.35 | 97 | 1007.2 |
| 20260506133036 | 6 | 45 | 6.4 | 16.1 | 0.03 | 1.60 | 1.32 | 97 | 1007.0 |
| 20260506130016 | 6 | 45 | 6.4 | 14.5 | 0.03 | 1.57 | 1.30 | 97 | 1006.8 |
| 20260506123016 | 6 | 45 | 6.4 | 11.3 | 0.08 | 1.57 | 1.30 | 97 | 1007.0 |
| 20260506120018 | 6 | 45 | 8.0 | 19.3 | 0.08 | 1.55 | 1.27 | 97 | 1007.1 |
| 20260506113016 | 6 | 45 | 8.0 | 17.7 | 0.08 | 1.50 | 1.22 | 97 | 1006.6 |
| 20260506110036 | 6 | 45 | 9.7 | 17.7 | 0.13 | 1.45 | 1.19 | 97 | 1006.5 |
| 20260506103016 | 6 | 45 | 6.4 | 14.5 | 0.13 | 1.40 | 1.14 | 98 | 1007.0 |
| 20260506100016 | 6 | 45 | 4.8 | 9.7 | 0.08 | 1.32 | 1.07 | 98 | 1007.0 |
| 20260506093036 | 6 | 45 | 6.4 | 12.9 | 0.10 | 1.27 | 1.02 | 97 | 1006.8 |
| 20260506090016 | 6 | 45 | 6.4 | 11.3 | 0.18 | 1.24 | 0.99 | 97 | 1006.6 |
| 20260506083017 | 7 | 45 | 8.0 | 16.1 | 0.23 | 1.17 | 0.91 | 97 | 1006.8 |
| 20260506073015 | 7 | 45 | 9.7 | 17.7 | 0.20 | 0.94 | 0.69 | 97 | 1007.1 |